Date String (YYYY-MM-DD hh:mm:ss) UTC,Instrument flags,absolute air pressure of the measurement (hPa),sample flow rate (lpm),inlet stack bypass flow (lpm),air temperature of the measurement (°C),ambient temperature measured by the external sensor (°C),aerosol sample conditioner tube jacket temperature (°C),OPC LED temperature (°C),internal box temperature (°C),relative humidity of the measurement (%),span deviation,mass concentration of particles derived from Lorenz-Mie calculation of OPC scattering (μg/m³),mass concentration of particles derived from Lorenz-Mie calculation of OPC scattering (μg/m³),mass concentration of particles derived from Lorenz-Mie calculation of OPC scattering (μg/m³)
DateTimeUTC,F1_M11,P_M11,Q1_M11,Q2_M11,T1_M11,T2_M11,T3_M11,T4_M11,T5_M11,U1_M11,ZSPAN_M11,X2_M11,X0_M11,X1_M11
2024-02-17 12:00:00,SystemResetWarning,0835.6,5.00,000.00,018.5,018.2,000.0,026.9,020.0,11.0,0000.0,0006.42,0007.94,0006.27
2024-02-17 12:01:00,SystemResetWarning,0835.5,4.99,000.00,018.4,018.0,000.0,027.0,020.0,11.0,0000.0,0006.44,0007.85,0006.28
2024-02-17 12:02:00,SystemResetWarning,0835.5,5.00,000.00,018.4,017.9,000.0,027.0,020.0,11.0,0000.0,0006.46,0007.86,0006.31
2024-02-17 12:03:00,SystemResetWarning,0835.6,5.00,000.00,018.4,017.7,000.0,027.0,020.0,11.0,0000.0,0006.46,0007.84,0006.33
2024-02-17 12:04:00,SystemResetWarning,0835.6,5.01,000.00,018.3,017.6,000.0,027.0,020.0,11.0,0000.0,0006.45,0007.82,0006.32
2024-02-17 12:05:00,SystemResetWarning,0835.6,5.01,000.00,018.3,017.7,000.0,027.0,020.1,11.0,0000.0,0006.45,0007.82,0006.30
2024-02-17 12:06:00,SystemResetWarning,0835.6,5.00,000.00,018.5,018.4,000.0,027.1,020.6,10.9,0000.0,0006.44,0007.82,0006.30
2024-02-17 12:07:00,SystemResetWarning,0835.6,4.99,000.00,018.7,019.1,000.0,027.2,020.9,10.8,0000.0,0006.42,0007.78,0006.29
2024-02-17 12:08:00,SystemResetWarning,0835.6,4.99,000.00,018.7,019.0,000.0,027.1,020.8,10.7,0000.0,0006.40,0007.75,0006.27
2024-02-17 12:09:00,SystemResetWarning,0835.6,5.01,000.00,018.7,018.8,000.0,027.0,020.6,10.7,0000.0,0006.35,0007.69,0006.23
2024-02-17 12:10:00,SystemResetWarning,0835.6,5.01,000.00,018.7,018.6,000.0,027.0,020.5,10.7,0000.0,0006.31,0007.66,0006.21
2024-02-17 12:11:00,SystemResetWarning,0835.6,5.00,000.00,018.6,018.4,000.0,027.0,020.3,10.7,0000.0,0006.27,0007.66,0006.17
2024-02-17 12:12:00,SystemResetWarning,0835.6,4.99,000.00,018.6,018.3,000.0,027.0,020.2,10.7,0000.0,0006.23,0008.26,0006.13
2024-02-17 12:13:00,SystemResetWarning,0835.6,5.00,000.00,018.5,018.1,000.0,026.9,020.1,10.8,0000.0,0006.19,0008.25,0006.08
2024-02-17 12:14:00,SystemResetWarning,0835.6,5.01,000.00,018.4,018.0,000.0,026.9,020.0,10.8,0000.0,0006.16,0008.24,0006.05
2024-02-17 12:15:00,SystemResetWarning,0835.6,5.00,000.00,018.4,017.9,000.0,026.9,020.0,10.8,0000.0,0006.17,0008.25,0006.05
2024-02-17 12:16:00,SystemResetWarning,0835.6,5.01,000.00,018.4,017.8,000.0,027.0,020.0,10.8,0000.0,0006.17,0008.22,0006.05
2024-02-17 12:17:00,SystemResetWarning,0835.6,5.00,000.00,018.3,017.7,000.0,027.0,020.0,10.8,0000.0,0006.18,0008.23,0006.04
2024-02-17 12:18:00,SystemResetWarning,0835.6,5.00,000.00,018.3,017.7,000.0,027.0,020.0,10.8,0000.0,0006.19,0008.24,0006.04
2024-02-17 12:19:00,SystemResetWarning,0835.6,5.01,000.00,018.4,018.2,000.0,027.1,020.4,10.8,0000.0,0006.19,0008.24,0006.04
2024-02-17 12:20:00,SystemResetWarning,0835.6,4.99,000.00,018.6,019.0,000.0,027.2,020.9,10.7,0000.0,0006.18,0008.22,0006.04
2024-02-17 12:21:00,SystemResetWarning,0835.6,4.99,000.00,018.8,019.1,000.0,027.1,020.9,10.6,0000.0,0006.18,0008.21,0006.04
2024-02-17 12:22:00,SystemResetWarning,0835.6,5.00,000.00,018.7,018.9,000.0,027.1,020.7,10.5,0000.0,0006.19,0008.17,0006.04
2024-02-17 12:23:00,SystemResetWarning,0835.6,5.01,000.00,018.7,018.7,000.0,027.0,020.5,10.5,0000.0,0006.21,0007.56,0006.05
2024-02-17 12:24:00,SystemResetWarning,0835.6,5.01,000.00,018.6,018.5,000.0,027.0,020.3,10.6,0000.0,0006.22,0007.58,0006.07
2024-02-17 12:25:00,SystemResetWarning,0835.6,5.00,000.00,018.6,018.3,000.0,026.9,020.2,10.6,0000.0,0006.24,0007.58,0006.10
2024-02-17 12:26:00,SystemResetWarning,0835.6,5.00,000.00,018.5,018.2,000.0,026.9,020.1,10.6,0000.0,0006.23,0007.57,0006.08
2024-02-17 12:27:00,SystemResetWarning,0835.6,5.00,000.00,018.4,018.0,000.0,026.9,020.0,10.6,0000.0,0006.21,0007.54,0006.08
2024-02-17 12:28:00,SystemResetWarning,0835.6,5.01,000.00,018.4,017.9,000.0,026.9,020.0,10.6,0000.0,0006.18,0007.46,0006.08
2024-02-17 12:29:00,SystemResetWarning,0835.6,5.01,000.00,018.4,017.8,000.0,026.9,020.0,10.6,0000.0,0006.16,0007.39,0006.09
2024-02-17 12:30:00,SystemResetWarning,0835.8,4.99,000.00,018.3,017.7,000.0,026.9,020.0,10.6,0000.0,0006.16,0007.37,0006.09
2024-02-17 12:31:00,SystemResetWarning,0835.7,4.99,000.00,018.3,017.6,000.0,027.0,020.0,10.6,0000.0,0006.19,0007.43,0006.11
2024-02-17 12:32:00,SystemResetWarning,0835.7,5.00,000.00,018.3,017.9,000.0,027.0,020.2,10.5,0000.0,0006.19,0007.41,0006.11
2024-02-17 12:33:00,SystemResetWarning,0835.7,5.01,000.00,018.5,018.7,000.0,027.1,020.7,10.4,0000.0,0006.19,0007.40,0006.11
2024-02-17 12:34:00,SystemResetWarning,0835.7,5.00,000.00,018.7,019.1,000.0,027.1,020.9,10.3,0000.0,0006.20,0007.40,0006.12
2024-02-17 12:35:00,SystemResetWarning,0835.7,4.98,000.00,018.7,018.9,000.0,027.1,020.7,10.2,0000.0,0006.19,0007.37,0006.12
2024-02-17 12:36:00,SystemResetWarning,0835.7,5.01,000.00,018.6,018.7,000.0,027.0,020.4,10.2,0000.0,0006.17,0007.35,0006.10
2024-02-17 12:37:00,SystemResetWarning,0835.6,5.01,000.00,018.6,018.5,000.0,027.0,020.2,10.2,0000.0,0006.15,0007.36,0006.08
2024-02-17 12:38:00,SystemResetWarning,0835.6,5.00,000.00,018.5,018.3,000.0,026.9,020.1,10.2,0000.0,0006.13,0007.38,0006.05
2024-02-17 12:39:00,SystemResetWarning,0835.6,5.00,000.00,018.4,018.1,000.0,026.9,020.0,10.2,0000.0,0006.10,0007.37,0006.02
2024-02-17 12:40:00,SystemResetWarning,0835.6,5.00,000.00,018.4,018.0,000.0,027.0,020.0,10.2,0000.0,0006.08,0007.36,0005.99
2024-02-17 12:41:00,SystemResetWarning,0835.7,4.99,000.00,018.4,017.9,000.0,027.0,020.0,10.2,0000.0,0006.06,0007.38,0005.96
2024-02-17 12:42:00,SystemResetWarning,0835.6,4.99,000.00,018.3,017.8,000.0,027.0,020.0,10.3,0000.0,0006.05,0007.37,0005.93
2024-02-17 12:43:00,SystemResetWarning,0835.6,5.01,000.00,018.3,017.7,000.0,027.0,020.0,10.3,0000.0,0006.02,0007.34,0005.90
2024-02-17 12:44:00,SystemResetWarning,0835.7,5.01,000.00,018.3,017.8,000.0,027.1,020.1,10.2,0000.0,0006.00,0007.35,0005.87
2024-02-17 12:45:00,SystemResetWarning,0835.6,5.00,000.00,018.5,018.5,000.0,027.1,020.6,10.1,0000.0,0005.95,0007.35,0005.82
2024-02-17 12:46:00,SystemResetWarning,0835.6,4.99,000.00,018.7,019.0,000.0,027.2,020.9,10.0,0000.0,0005.92,0007.32,0005.78
2024-02-17 12:47:00,SystemResetWarning,0835.6,4.99,000.00,018.7,018.9,000.0,027.1,020.8,09.9,0000.0,0005.88,0007.32,0005.74
2024-02-17 12:48:00,SystemResetWarning,0835.6,5.00,000.00,018.7,018.7,000.0,027.1,020.6,09.8,0000.0,0005.88,0007.31,0005.75
2024-02-17 12:49:00,SystemResetWarning,0835.6,5.01,000.00,018.6,018.6,000.0,027.0,020.4,09.8,0000.0,0005.88,0007.28,0005.76
2024-02-17 12:50:00,SystemResetWarning,0835.6,5.00,000.00,018.6,018.4,000.0,027.0,020.3,09.8,0000.0,0005.90,0007.30,0005.77
2024-02-17 12:51:00,SystemResetWarning,0835.6,5.00,000.00,018.5,018.2,000.0,027.0,020.2,09.8,0000.0,0005.94,0007.34,0005.81
2024-02-17 12:52:00,SystemResetWarning,0835.6,5.00,000.00,018.5,018.1,000.0,026.9,020.1,09.8,0000.0,0005.99,0007.38,0005.86
2024-02-17 12:53:00,SystemResetWarning,0835.6,5.00,000.00,018.4,017.9,000.0,026.9,020.0,09.8,0000.0,0006.00,0007.36,0005.89
2024-02-17 12:54:00,SystemResetWarning,0835.7,4.99,000.00,018.4,017.8,000.0,026.9,020.0,09.8,0000.0,0006.03,0007.38,0005.92
2024-02-17 12:55:00,SystemResetWarning,0835.6,4.99,000.00,018.4,017.7,000.0,027.0,020.0,09.8,0000.0,0006.04,0007.38,0005.94
2024-02-17 12:56:00,SystemResetWarning,0835.6,5.01,000.00,018.3,017.7,000.0,027.0,020.1,09.7,0000.0,0006.07,0007.36,0005.97
2024-02-17 12:57:00,SystemResetWarning,0835.6,5.01,000.00,018.4,018.2,000.0,027.1,020.4,09.7,0000.0,0006.09,0007.36,0006.01
2024-02-17 12:58:00,SystemResetWarning,0835.7,4.98,000.00,018.6,018.9,000.0,027.2,020.8,09.5,0000.0,0006.14,0007.39,0006.07
2024-02-17 12:59:00,SystemResetWarning,0835.6,4.99,000.00,018.7,018.9,000.0,027.1,020.7,09.4,0000.0,0006.18,0007.40,0006.10
